THOR ABLESTAR DEB, 132

Orbit data source: Space-Track

THOR ABLESTAR DEB, 132 is space debris in LEO originally from a launch on Thu, 29 Jun 1961 UTC launched from the Air Force Eastern Test Range (AFETR). Debris objects in space refer to the collection of defunct objects orbiting the Earth. Examples of debris include non-operational satellites, rocket bodies, and fragments generated from explosions, collisions, or faulty payload assembly.

Loading next visibility...
Identifier
132, 1961-015S
Orbit
LEO
Country
Flag of USUS
Related business
Manufacturer
Unknown
Mission
Spacecraft
Bus & Motor
Unknown
Mass
Unknown
Launch date (UTC)
1961-06-29 (65 years ago)
Launch vehicle
Unknown
Launch site
Air Force Eastern Test Range (AFETR)
Object type
Payload
Rocket body
Debris
Shape & HBR
Unknown shape, 0.4 m
Radar Cross Section
Medium (>0.1 m² and <1 m²)

Expand to show TLE details & history
Last TLE update: 13 hours ago

TLE from 13 hours ago
0 THOR ABLESTAR DEB
1 00132U 61015S   26044.67689895  .00000010  00000-0  64368-4 0  9995
2 00132  66.6592 277.1903 0081680 273.0049  86.1686 13.94752082286449
Epoch: 2026-02-13T16:14Z
TLE epoch observation values (Epoch: 2026-02-13T16:14:44.069Z)
Latitude
-0.00001°
Longitude
-110.20421°
Altitude
910.599 km
Speed
7.399 km/s
True Right ascension
18h 28m 45s
True Declination
0° 00' 00"
Sunlit
Object was in daylight at epoch
Visualization orbit readout
Latitude
Unknown
Longitude
Unknown
Altitude
Unknown
Speed
Unknown
Apparent Right ascension
Unknown
Apparent Declination
Unknown
Sunlit
N/A
Visualization observer readout
Local Sidereal Time
07:32:10
Azimuth
Unknown
Elevation
Unknown
Doppler factor
Unknown
Orbital elements
Apogee altitude
969.964 km
Perigee altitude
850.898 km
Semi-major axis
7,288.568 km
Eccentricity
0.00817
Inclination
66.6592°
RAAN
277.1903°
Arg. of periapsis
273.0049°
True anomaly
87.10309°
Mean anomaly
86.1686°
Eccentric anomaly
86.63579°
Mean motion
3.48803 °/min
Orbital period
103.21 mins
BSTAR
0.000064368

Documentation

Showing up to 5 results
|